Aeroporto :
LOGIN :

Iscrizione | Disclaimer

   EN    FR    IT 

 










Sommario :    VFR   VFR Marginale   IFR   IFR Intensivo   IFR Molto Intensivo
Visibilità : 
Base nubi : 
>= 8 km
>= 3000ft
5 / 8 km
1000 / 3000 ft
1500m / 5 km
500 / 1000 ft
800 / 1500m
200 / 500 ft
< 800m
< 200 ft
Simboli :   Temporali  Nebbia  Neve Forte  Precipitazioni Forti  Vento > 20 kt
SIGMETs :   Varie  Temporali  Ghiacco  Turbolenza  Onda orograficha  Ceneri Vulcaniche







- Altitudine del aeroporto : 291 ft
- Codice IATA : ORY
- Carte del aeroporto


LFPO - Paris-Orly

ULTIMO METAR :
  • 221730Z 22006KT 1500 BR BKN002 01/00 Q1003 TEMPO 0800 FG OVC001

METARs OBSOLETI :
  • 221700Z 21004KT 180V240 3000 BR BKN003 01/00 Q1003 TEMPO 2000 BR
  • 221630Z 21005KT 3500 BR BKN003 01/00 Q1003 TEMPO 2000 BR
  • 221600Z 20003KT 170V230 4000 BR BKN004 01/00 Q1003 BECMG 6000 NSW
  • 221530Z 20005KT 160V230 4000 BR BKN004 01/01 Q1003 BECMG 6000 NSW
  • 221500Z 21004KT 170V240 4500 BR BKN005 01/01 Q1004 BECMG 6000 NSW

TAF TAF LFPO
Valido dal 22 a 18 ore il 24 a 00 ore UTC


221700Z 2218/2324 21006KT 4000 BR OVC003
TEMPO 2218/2220 1200 BR
TEMPO 2220/2304 2000 SHSNRA SCT020TCU
PROB40
TEMPO 2220/2304 1200 SHSN
BECMG 2306/2308 33010KT 9999 NSW BKN009
BECMG 2308/2310 BKN018
TEMPO 2310/2318 2000 SHSN BKN008 SCT015CB
TEMPO 2318/2324 BKN008
ATIS : +33 1 49 75 65 80
Nessun NOTAM noto per questo aeroporto.



MetMap, La meteo Aeronautica in un colpo d'occhio ! - Copyright ORBIFLY Dicembre 2007 - Disclaimer

ORBIFLY MET'MAP TEAM :

Programmazione e sviluppo : Alexandra Zaïnal
Concezione e sviluppo : Baudouin d'Aumeries
Co-Programmazione e sviluppo : Marc-Olivier Méhu
Supporto tecnico e logistico : Manuel Goepfert
Aiuto per la traduzione : Arnaldo La Scala

Contatto : metmap@orbifly.com




FONTI E CREDITI :

   NOAA